Regional Weather Roundup
Issued by NWS

Home | Current Version | Previous Version | Text Only | Print | Product List | Glossary Off
Versions: 1 2 3 4 5 6 7 8 9 10 11 12 13 14 15 16 17 18 19 20 21 22 23 24 25 26 27 28 29 30 31 32 33 34 35 36 37 38 39 40 41 42 43 44 45 46 47 48 49 50

000
ASUS43 KDMX 300107
RWRIA

WEATHER ROUNDUP FOR IOWA
NATIONAL WEATHER SERVICE DES MOINES IA
800 PM CDT SUN MAR 29 2015

NOTE: "FAIR" INDICATES FEW OR NO CLOUDS BELOW 12,000 FEET WITH NO
SIGNIFICANT WEATHER AND/OR OBSTRUCTIONS TO VISIBILITY.

* - THESE STATIONS ARE NOT NWS STATIONS...THUS NOT UNDER NWS
QUALITY CONTROL.  THEY ALSO DO NOT REPORT WEATHER SUCH
AS PRECIPITATION OR FOG.

IAZ001>003-012>014-020>022-031>034-043>046-300200-
   NORTHWEST IOWA

CITY           SKY/WX    TMP DP  RH WIND       PRES   REMARKS
CARROLL *      CLEAR     48  21  34 NW8       30.03R
CHEROKEE *     CLEAR     52  21  30 NW7       30.04R
DENISON *      CLEAR     52  23  32 NW9       30.04R
LE MARS *      CLEAR     52  23  32 N6        30.06R
ORANGE CITY *  CLEAR     54  18  24 NW8       30.04R
SHELDON *      CLEAR     50  23  34 NW12      30.02R
SIOUX CITY     CLEAR     54  21  27 NW10      30.06R
SPENCER        CLEAR     49  26  41 NW14      30.02R
STORM LAKE *   CLEAR     52  21  30 NW13      30.04R
$$

IAZ055>058-069>071-079>083-090>094-300200-
   SOUTHWEST IOWA

CITY           SKY/WX    TMP DP  RH WIND       PRES   REMARKS
ATLANTIC *     CLEAR     52  25  35 NW10      30.06R
AUDUBON *      CLEAR     52  18  25 NW6       30.06R
CLARINDA *     CLEAR     54  28  37 NW8       30.09R
COUNCIL BLFS * CLEAR     55  23  28 NW9G15    30.08R
CRESTON *      CLEAR     50  27  40 NW9       30.05R
HARLAN  *      CLEAR     50  25  37 NW10      30.10R
LAMONI         CLEAR     51  32  48 NW8       30.04R
RED OAK *      CLEAR     52  28  40 NW6       30.07R
SHENANDOAH *   CLEAR     55  27  33 NW6       30.09R
$$

IAZ047>049-059>061-072>074-084-300200-
   CENTRAL IOWA

CITY           SKY/WX    TMP DP  RH WIND       PRES   REMARKS
AMES           CLEAR     53  22  29 NW12      29.99R
ANKENY *       CLEAR     55  23  28 NW12G17   30.00R
CHARITON *     CLEAR     54  27  35 NW12      30.01R
DES MOINES     PTCLDY    56  20  24 NW9       30.01R
GRINNELL*      CLEAR     48  27  43 NW12      29.98R
KNOXVILLE *    CLEAR     54  23  30 NW13      29.99R
MARSHALLTOWN   CLEAR     48  28  46 NW14      29.97R
PELLA *        CLEAR     52  30  43 NW9       30.00R
PERRY *          N/A     54  25  32 NW12      30.02R
$$

IAZ004>006-015-016-023>025-035-036-300200-
   NORTH CENTRAL IOWA

CITY           SKY/WX    TMP DP  RH WIND       PRES   REMARKS
ALGONA *       CLEAR     50  27  40 NW12      30.00R
CLARION *      CLEAR     48  30  49 NW15      29.98R
ESTHERVILLE    CLEAR     48  25  40 NW13      29.99R
FORT DODGE *   CLEAR     52  25  35 NW6       30.01R
MASON CITY     CLEAR     48  30  49 NW17      29.97R
FOREST CITY *  CLEAR     46  30  53 NW13G18   29.96R
IOWA FALLS *     N/A     48  30  49 NW15      29.98R
$$

IAZ007>011-017>019-026>030-037>042-050>054-066-300200-
   NORTHEAST IOWA

CITY           SKY/WX    TMP DP  RH WIND       PRES   REMARKS
CEDAR RAPIDS   CLEAR     49  28  44 NW14      29.92R
CHARLES CITY * CLEAR     46  34  61 NW16G23   29.94R
CLINTON *      CLEAR     43  36  75 NW13      29.92R
DECORAH *      CLEAR     45  28  53 NW14G24   29.88R
DUBUQUE        CLEAR     47  27  45 NW16G25   29.88R
MONTICELLO *   CLEAR     48  30  49 NW14      29.90R
OELWEIN *      CLEAR     46  32  57 NW20G26   29.93R
WATERLOO       CLEAR     49  30  48 NW13      29.94R
$$

IAZ064-065-067-068-078-300200-
   EAST CENTRAL IOWA

CITY           SKY/WX    TMP DP  RH WIND       PRES   REMARKS
DAVENPORT      CLEAR     48  35  60 NW16      29.91R
IOWA CITY      CLEAR     52  29  41 NW10      29.95R
MT. PLEASANT * CLEAR     54  28  37 NW12G20   29.96R
MUSCATINE *    CLEAR     54  28  37 NW16G23   29.94R
QUAD CITIES    CLEAR     51  37  58 NW10      29.90R
$$

IAZ062-063-075>077-085>089-095>099-300200-
   SOUTHEAST IOWA

CITY           SKY/WX    TMP DP  RH WIND       PRES   REMARKS
BURLINGTON     CLEAR     53  36  52 NW8       29.94R
FAIRFIELD *    CLEAR     52  30  43 NW13G18   29.98R
FORT MADISON * CLEAR     52  37  58 NW9       29.97R
KEOKUK *       CLEAR     54  37  54 W8        29.96R
OSKALOOSA *      N/A     46  27  46 NW10      29.99R
CENTERVILLE *  CLEAR     48  32  53 W9        30.02R
OTTUMWA        CLEAR     47  25  42 NW9       29.98R
WASHINGTON *   CLEAR     54  30  40 NW14G20   29.96R
$$

ABBREVIATIONS USED IN REMARKS
   TC - TEMPERATURES IN CELSIUS
  WCI - WIND CHILL INDEX
   HX - HEAT INDEX
  VSB - VISIBILITY
$$



USA.gov is the U.S. government's official web portal to all federal, state and local government web resources and services.